Location: Albany
(35.0170°S, 117.8920°E)
Time: 17:14:38
(UTC+08:00)

Transit 2A - Pass Details

Date: 30 January 2021
Orbit: 601 x 958 km, 66.7° (Epoch: 02 March)

Event Time Altitude Azimuth Distance (km) Brightness Sun altitude
Rises 21:39:26 0° 189° (S) 3,543 10.3 -24.9°
Reaches altitude 10° 21:43:45 10° 160° (SSE) 2,657 9.1 -25.5°
Maximum altitude 21:46:17 13° 136° (SE) 2,498 8.7 -25.8°
Enters shadow 21:48:17 11° 117° (ESE) 2,621 8.6 -26.1°
Drops below altitude 10° 21:48:51 10° 112° (ESE) 2,693 - -26.2°
Sets 21:53:16 0° 84° (E) 3,644 - -26.8°
